Location: Chochol
(49.7771°N, 14.9780°E)
Time: 09:16:35
(UTC+00:00)

ATLAS 5 CENTAUR R/B - Pass Details

Date: 09 April 2020
Orbit: 543 x 1116 km, 63.4° (Epoch: 01 May)

Event Time Altitude Azimuth Distance (km) Brightness Sun altitude
Rises 20:00:21 0° 246° (WSW) 2,774 5.2 -20.1°
Reaches altitude 10° 20:02:34 10° 254° (WSW) 1,926 4.5 -20.4°
Maximum altitude 20:06:39 40° 325° (NW) 947 3.0 -20.9°
Drops below altitude 10° 20:11:20 10° 36° (NE) 2,203 4.5 -21.4°
Sets 20:14:01 0° 43° (NE) 3,228 5.3 -21.7°
